Weather History for Northeast Philadelphia, PA

Change the Weather History Date:

Monday, February 18, 2013

  Actual Average Record
Temperature  
Mean Temperature 28 °F -  
Max Temperature 36 °F 42 °F 69 °F (2011)
Min Temperature 19 °F 26 °F 17 °F (2006)
Degree Days  
Heating Degree Days 38    
Moisture  
Dew Point 6 °F    
Average Humidity 41    
Maximum Humidity 50    
Minimum Humidity 31    
Precipitation  
Precipitation 0.00 in - - ()
Sea Level Pressure  
Sea Level Pressure 30.25 in    
Wind  
Wind Speed 12 mph (West)    
Max Wind Speed 17 mph    
Max Gust Speed 25 mph    
Visibility 10 miles    
Events      
Averages and records for this station are not official NWS values.
T = Trace of Precipitation, MM = Missing Value Source: NWS Daily Summary

Daily Weather History Graph

Daily Weather History Graph

Search for Another Location

Airport:

Trip Planner

Search our weather history database for the weather conditions in past years. The results will help you decide how hot, cold, wet, or windy it might be!

Date:

Astronomy

Feb. 18, 2013 Rise Set
Actual Time 6:48 AM EST 5:39 PM EST
Civil Twilight 6:21 AM EST 6:07 PM EST
Nautical Twilight 5:49 AM EST 6:38 PM EST
Astronomical Twilight 5:18 AM EST 7:10 PM EST
Moon 11:23 AM EST (2/18) 1:26 AM EST (2/18)
Length of Visible Light 11h 46m
Length of Day
10h 50m
First Quarter, 58% of the Moon is Illuminated
Feb 18
First Quarter
Feb 25
Full
Mar 4
Last Quarter
Mar 11
New
Mar 19
First Quarter

Hourly Weather History & Observations

Time (EST) Temp. Windchill Dew Point Humidity Pressure Visibility Wind Dir Wind Speed Gust Speed Precip Events Conditions
12:54 AM 19.9 °F 6.2 °F 1.0 °F 44% 30.12 in 10.0 mi WNW 15.0 mph 23.0 mph N/A   Clear
1:54 AM 19.9 °F 5.7 °F 1.9 °F 46% 30.14 in 10.0 mi WNW 16.1 mph 25.3 mph N/A   Clear
2:54 AM 19.9 °F 8.6 °F 1.9 °F 46% 30.16 in 10.0 mi NW 10.4 mph 23.0 mph N/A   Clear
3:54 AM 19.4 °F 6.0 °F 1.4 °F 46% 30.17 in 10.0 mi WNW 13.8 mph 19.6 mph N/A   Clear
4:54 AM 19.9 °F 5.2 °F 1.9 °F 46% 30.21 in 10.0 mi NW 17.3 mph 23.0 mph N/A   Clear
5:54 AM 19.0 °F 6.1 °F 1.9 °F 47% 30.23 in 10.0 mi NW 12.7 mph - N/A   Clear
6:54 AM 19.0 °F 7.5 °F 3.0 °F 50% 30.27 in 10.0 mi WNW 10.4 mph - N/A   Clear
7:54 AM 21.0 °F 7.1 °F 3.9 °F 48% 30.30 in 10.0 mi NW 16.1 mph 20.7 mph N/A   Clear
8:54 AM 23.0 °F 9.2 °F 3.0 °F 42% 30.32 in 10.0 mi NW 17.3 mph 23.0 mph N/A   Clear
9:54 AM 26.1 °F 14.0 °F 3.9 °F 39% 30.33 in 10.0 mi West 15.0 mph 20.7 mph N/A   Clear
10:54 AM 28.0 °F 16.5 °F 5.0 °F 38% 30.34 in 10.0 mi West 15.0 mph 21.9 mph N/A   Clear
11:54 AM 30.9 °F 21.2 °F 7.0 °F 37% 30.32 in 10.0 mi WNW 12.7 mph 19.6 mph N/A   Clear
12:54 PM 33.1 °F 23.4 °F 8.1 °F 35% 30.28 in 10.0 mi West 13.8 mph 20.7 mph N/A   Clear
1:54 PM 34.0 °F 25.5 °F 8.1 °F 34% 30.26 in 10.0 mi West 11.5 mph 18.4 mph N/A   Clear
2:54 PM 35.1 °F 27.4 °F 7.0 °F 31% 30.25 in 10.0 mi WSW 10.4 mph - N/A   Clear
3:54 PM 36.0 °F 27.1 °F 9.0 °F 33% 30.25 in 10.0 mi West 13.8 mph - N/A   Clear
4:54 PM 35.1 °F 28.6 °F 8.1 °F 33% 30.25 in 10.0 mi WNW 8.1 mph - N/A   Clear
5:54 PM 33.1 °F 27.7 °F 7.0 °F 34% 30.25 in 10.0 mi West 5.8 mph - N/A   Clear
6:54 PM 32.0 °F 27.5 °F 8.1 °F 37% 30.27 in 10.0 mi WSW 4.6 mph - N/A   Clear
7:54 PM 32.0 °F 28.7 °F 9.0 °F 38% 30.27 in 10.0 mi SSW 3.5 mph - N/A   Clear
8:54 PM 33.1 °F 27.7 °F 10.9 °F 40% 30.26 in 10.0 mi SSW 5.8 mph - N/A   Clear
9:54 PM 32.0 °F 26.4 °F 10.9 °F 42% 30.25 in 10.0 mi SSW 5.8 mph - N/A   Clear
10:54 PM 32.0 °F 28.7 °F 12.0 °F 44% 30.24 in 10.0 mi SSW 3.5 mph - N/A   Clear
11:54 PM 30.9 °F 27.5 °F 12.0 °F 46% 30.23 in 10.0 mi South 3.5 mph - N/A   Clear